{"data":{"norad_id":61879,"epoch":"2026-05-24T23:15:37.024128Z","epoch_age_seconds":71480,"freshness":"FRESH","line1":"1 61879U 24204F   26144.96917852  .00002668  00000+0  26871-4 0  9996","line2":"2 61879  53.1583 340.3457 0000860  80.5119 279.5996 15.69710092 88892","mean_motion":15.69710092,"eccentricity":8.6e-5,"inclination_deg":53.1583,"raan_deg":340.3457,"arg_perigee_deg":80.5119,"mean_anomaly_deg":279.5996,"bstar":2.6871e-5,"rev_number":8889,"period_min":91.736684840018,"perigee_km":359.14703089111,"apogee_km":360.3059434109,"semimajor_km":6737.863487151,"source":"CELESTRAK","updated_at":"2026-05-25T13:38:19.475257Z"}}